When you browse on this site, cookies collect data to enhance your experience and personalize the content and advertising you see.
Visit our Privacy Policy to learn more. By continuing to use the site, you agree to this use of cookies and data.
  • In Switzerland
  • List of Countries
  • For 7 days
  • Water Temperature
  • Satellite Maps
  • Weather Map
  • Weather Widgets
  • user-avatar
    Login

    Hourly Weather Baku

    Today, 23 March, Saturday

    Time Temperature Precipitation Wind Pressure Humidity
    00:00 +7°C° 0 mm 6 mps 765 mmHg 88%
    01:00 +7°C° 0 mm 5 mps 765 mmHg 87%
    02:00 +7°C° 0 mm 4 mps 765 mmHg 87%
    03:00 +6°C° 0 mm 4 mps 765 mmHg 85%
    04:00 +7°C° 0.1 mm 3 mps 765 mmHg 85%
    05:00 +7°C° 0.1 mm 2 mps 764 mmHg 85%
    06:00 +7°C° 0.1 mm 0 mps 764 mmHg 85%
    07:00 +8°C° 0 mm 2 mps 764 mmHg 81%
    08:00 +8°C° 0 mm 4 mps 763 mmHg 77%
    09:00 +9°C° 0 mm 7 mps 763 mmHg 72%
    10:00 +10°C° 0 mm 7 mps 763 mmHg 69%
    11:00 +11°C° 0 mm 8 mps 762 mmHg 66%
    12:00 +11°C° 0 mm 8 mps 762 mmHg 62%
    13:00 +12°C° 0 mm 9 mps 761 mmHg 62%
    14:00 +12°C° 0 mm 9 mps 760 mmHg 61%
    15:00 +12°C° 0 mm 9 mps 760 mmHg 60%
    16:00 +12°C° 0 mm 9 mps 760 mmHg 65%
    17:00 +11°C° 0 mm 9 mps 759 mmHg 69%
    18:00 +10°C° 0 mm 9 mps 759 mmHg 74%
    19:00 +10°C° 0 mm 9 mps 759 mmHg 76%
    20:00 +10°C° 0 mm 8 mps 759 mmHg 78%
    21:00 +9°C° 0 mm 8 mps 759 mmHg 79%
    22:00 +9°C° 0 mm 7 mps 759 mmHg 80%
    23:00 +9°C° 0 mm 7 mps 759 mmHg 80%

    Tomorrow, 24 March, Sunday

    Time Temperature Precipitation Wind Pressure Humidity
    00:00 +9°C° 0 mm 6 mps 759 mmHg 81%
    01:00 +9°C° 0 mm 6 mps 758 mmHg 81%
    02:00 +9°C° 0 mm 5 mps 758 mmHg 82%
    03:00 +9°C° 0 mm 5 mps 758 mmHg 83%
    04:00 +10°C° 0 mm 4 mps 758 mmHg 83%
    05:00 +9°C° 0 mm 3 mps 758 mmHg 83%
    06:00 +9°C° 0 mm 2 mps 758 mmHg 84%
    07:00 +8°C° 0 mm 4 mps 758 mmHg 83%
    08:00 +7°C° 0 mm 6 mps 759 mmHg 83%
    09:00 +6°C° 0 mm 8 mps 759 mmHg 83%
    10:00 +7°C° 0 mm 9 mps 759 mmHg 79%
    11:00 +8°C° 0 mm 9 mps 759 mmHg 75%
    12:00 +8°C° 0 mm 10 mps 759 mmHg 72%
    13:00 +8°C° 0 mm 10 mps 759 mmHg 72%
    14:00 +8°C° 0 mm 11 mps 759 mmHg 72%
    15:00 +8°C° 0 mm 12 mps 759 mmHg 72%
    16:00 +7°C° 0 mm 12 mps 759 mmHg 74%
    17:00 +7°C° 0 mm 13 mps 759 mmHg 75%
    18:00 +5°C° 0 mm 13 mps 760 mmHg 76%
    19:00 +5°C° 0 mm 13 mps 760 mmHg 76%
    20:00 +5°C° 0 mm 13 mps 760 mmHg 77%
    21:00 +4°C° 0 mm 13 mps 760 mmHg 77%
    22:00 +4°C° 0 mm 13 mps 760 mmHg 76%
    23:00 +4°C° 0 mm 13 mps 760 mmHg 75%

    Day after tomorrow, 25 March, Monday

    Time Temperature Precipitation Wind Pressure Humidity
    00:00 +4°C° 0 mm 13 mps 760 mmHg 74%
    01:00 +4°C° 0 mm 14 mps 761 mmHg 72%
    02:00 +4°C° 0 mm 14 mps 761 mmHg 71%
    03:00 +4°C° 0 mm 14 mps 761 mmHg 70%
    04:00 +4°C° 0 mm 14 mps 761 mmHg 70%
    05:00 +4°C° 0 mm 13 mps 761 mmHg 70%
    06:00 +4°C° 0 mm 13 mps 761 mmHg 70%
    07:00 +4°C° 0.1 mm 13 mps 762 mmHg 69%
    08:00 +4°C° 0.1 mm 13 mps 762 mmHg 67%
    09:00 +4°C° 0.1 mm 13 mps 762 mmHg 66%
    10:00 +4°C° 0 mm 13 mps 762 mmHg 65%
    11:00 +4°C° 0 mm 13 mps 762 mmHg 65%
    12:00 +5°C° 0 mm 13 mps 762 mmHg 65%
    13:00 +4°C° 0.3 mm 12 mps 761 mmHg 67%
    14:00 +4°C° 0.3 mm 12 mps 761 mmHg 69%
    15:00 +4°C° 0.3 mm 11 mps 761 mmHg 71%
    16:00 +4°C° 0.4 mm 11 mps 761 mmHg 72%
    17:00 +4°C° 0.4 mm 11 mps 761 mmHg 72%
    18:00 +4°C° 0.4 mm 11 mps 761 mmHg 73%
    19:00 +5°C° 0.4 mm 10 mps 762 mmHg 72%
    20:00 +5°C° 0.4 mm 10 mps 762 mmHg 72%
    21:00 +5°C° 0.4 mm 9 mps 763 mmHg 71%
    22:00 +5°C° 0.1 mm 8 mps 763 mmHg 71%
    23:00 +5°C° 0.1 mm 8 mps 763 mmHg 70%

    26 March, Tuesday

    Time Temperature Precipitation Wind Pressure Humidity
    00:00 +5°C° 0.1 mm 7 mps 762 mmHg 70%
    01:00 +5°C° 0 mm 7 mps 763 mmHg 70%
    02:00 +5°C° 0 mm 6 mps 763 mmHg 70%
    03:00 +6°C° 0 mm 5 mps 763 mmHg 70%
    04:00 +6°C° 0 mm 5 mps 763 mmHg 71%
    05:00 +5°C° 0 mm 5 mps 763 mmHg 72%
    06:00 +5°C° 0 mm 5 mps 764 mmHg 73%
    07:00 +6°C° 0 mm 5 mps 764 mmHg 70%
    08:00 +7°C° 0 mm 5 mps 764 mmHg 67%
    09:00 +7°C° 0 mm 5 mps 765 mmHg 64%
    10:00 +8°C° 0 mm 5 mps 764 mmHg 61%
    11:00 +8°C° 0 mm 5 mps 764 mmHg 59%
    12:00 +9°C° 0 mm 5 mps 764 mmHg 57%
    13:00 +9°C° 0 mm 5 mps 763 mmHg 56%
    14:00 +10°C° 0 mm 4 mps 763 mmHg 54%
    15:00 +10°C° 0 mm 3 mps 763 mmHg 53%
    16:00 +10°C° 0 mm 3 mps 763 mmHg 54%
    17:00 +9°C° 0 mm 3 mps 763 mmHg 55%
    18:00 +9°C° 0 mm 3 mps 763 mmHg 56%
    19:00 +9°C° 0 mm 2 mps 763 mmHg 58%
    20:00 +9°C° 0 mm 2 mps 763 mmHg 59%
    21:00 +9°C° 0 mm 2 mps 763 mmHg 61%
    22:00 +8°C° 0 mm 2 mps 762 mmHg 62%
    23:00 +9°C° 0 mm 1 mps 762 mmHg 62%

    27 March, Wednesday

    Time Temperature Precipitation Wind Pressure Humidity
    00:00 +9°C° 0 mm 1 mps 761 mmHg 63%
    01:00 +8°C° 0 mm 2 mps 761 mmHg 64%
    02:00 +8°C° 0 mm 3 mps 760 mmHg 65%
    03:00 +8°C° 0 mm 3 mps 760 mmHg 66%
    04:00 +7°C° 0 mm 4 mps 760 mmHg 66%
    05:00 +7°C° 0 mm 4 mps 760 mmHg 67%
    06:00 +7°C° 0 mm 4 mps 760 mmHg 67%
    07:00 +8°C° 0 mm 5 mps 760 mmHg 64%
    08:00 +9°C° 0 mm 5 mps 760 mmHg 62%
    09:00 +9°C° 0 mm 6 mps 760 mmHg 59%
    10:00 +10°C° 0 mm 5 mps 760 mmHg 57%
    11:00 +12°C° 0 mm 4 mps 760 mmHg 55%
    12:00 +12°C° 0 mm 3 mps 760 mmHg 53%
    13:00 +12°C° 0 mm 3 mps 760 mmHg 55%
    14:00 +12°C° 0 mm 4 mps 760 mmHg 57%
    15:00 +11°C° 0 mm 4 mps 760 mmHg 59%
    16:00 +11°C° 0 mm 4 mps 760 mmHg 60%
    17:00 +9°C° 0 mm 5 mps 761 mmHg 61%
    18:00 +9°C° 0 mm 5 mps 761 mmHg 63%
    19:00 +8°C° 0 mm 4 mps 761 mmHg 64%
    20:00 +8°C° 0 mm 4 mps 762 mmHg 65%
    21:00 +9°C° 0 mm 3 mps 762 mmHg 66%
    22:00 +9°C° 0 mm 2 mps 762 mmHg 66%
    23:00 +9°C° 0 mm 2 mps 762 mmHg 65%

    28 March, Thursday

    Time Temperature Precipitation Wind Pressure Humidity
    00:00 +10°C° 0 mm 1 mps 762 mmHg 64%
    01:00 +10°C° 0 mm 1 mps 762 mmHg 64%
    02:00 +10°C° 0 mm 1 mps 762 mmHg 64%
    03:00 +10°C° 0 mm 1 mps 762 mmHg 64%
    04:00 +9°C° 0 mm 2 mps 763 mmHg 65%
    05:00 +9°C° 0 mm 2 mps 763 mmHg 67%
    06:00 +9°C° 0 mm 2 mps 764 mmHg 68%
    07:00 +10°C° 0 mm 4 mps 764 mmHg 65%
    08:00 +10°C° 0 mm 5 mps 764 mmHg 63%
    09:00 +10°C° 0 mm 6 mps 765 mmHg 60%
    10:00 +10°C° 0 mm 7 mps 765 mmHg 56%
    11:00 +11°C° 0 mm 7 mps 765 mmHg 53%
    12:00 +11°C° 0 mm 8 mps 765 mmHg 50%
    13:00 +11°C° 0 mm 8 mps 765 mmHg 53%
    14:00 +10°C° 0 mm 9 mps 765 mmHg 56%
    15:00 +9°C° 0 mm 10 mps 765 mmHg 60%
    16:00 +8°C° 0 mm 10 mps 766 mmHg 65%
    17:00 +7°C° 0 mm 11 mps 766 mmHg 71%
    18:00 +5°C° 0 mm 12 mps 767 mmHg 77%
    19:00 +6°C° 0 mm 11 mps 767 mmHg 73%
    20:00 +6°C° 0 mm 10 mps 767 mmHg 69%
    21:00 +6°C° 0 mm 10 mps 768 mmHg 65%
    22:00 +6°C° 0 mm 9 mps 767 mmHg 66%
    23:00 +6°C° 0 mm 8 mps 767 mmHg 67%
    Show more